2017-008AJ

Last updated on Tue Feb 28 2017 00:15:03 GMT+0000 (Coordinated Universal Time)

1 41980U 17008AJ 17058.83106397 .00001641 00000-0 75788-4 0 9997 2 41980 97.5132 120.4500 0008044 212.0595 148.0124 15.21612824 1736
UTC large
Height (km)
Speed (km/s)
/
Latitude / Longitude
Inclination (degrees)
Orbital Period (minutes)
Azimuth
Elevation
Range (km)
Doppler Factor

Next 0 passes for location: London (51.5072 / 0.1276)

Sorry there are no passes over London.
2017-008AJ